Time,TemperatureF,DewpointF,PressureIn,WindDirection,WindDirectionDegrees,WindSpeedMPH,WindSpeedGustMPH,Humidity,HourlyPrecipIn,Conditions,Clouds,dailyrainin,SoftwareType,DateUTC
2013-03-17 00:02:00,54.0,48.0,30.15,West,281,0.0,4.0,80,0.00,,,0.00,meteohub,2013-03-17 07:02:00,
2013-03-17 00:07:00,54.1,48.0,30.14,West,281,0.0,3.0,80,0.00,,,0.00,meteohub,2013-03-17 07:07:00,
2013-03-17 00:12:00,54.1,47.8,30.15,West,281,0.0,3.0,79,0.00,,,0.00,meteohub,2013-03-17 07:12:00,
2013-03-17 00:17:00,54.0,48.0,30.14,West,280,1.0,2.0,80,0.00,,,0.00,meteohub,2013-03-17 07:17:00,
2013-03-17 00:27:00,54.1,48.0,30.14,West,281,0.0,2.0,80,0.00,,,0.00,meteohub,2013-03-17 07:27:00,
2013-03-17 00:32:00,54.1,47.8,30.14,West,281,0.0,2.0,79,0.00,,,0.00,meteohub,2013-03-17 07:32:00,
2013-03-17 00:37:00,54.7,48.0,30.14,West,281,1.0,1.0,78,0.00,,,0.00,meteohub,2013-03-17 07:37:00,
2013-03-17 00:42:00,54.7,47.7,30.14,West,281,0.0,2.0,77,0.00,,,0.00,meteohub,2013-03-17 07:42:00,
2013-03-17 00:47:00,54.9,47.8,30.14,West,281,0.0,2.0,77,0.00,,,0.00,meteohub,2013-03-17 07:47:00,
2013-03-17 00:52:00,54.9,47.5,30.14,West,281,0.0,2.0,76,0.00,,,0.00,meteohub,2013-03-17 07:52:00,
2013-03-17 00:57:00,55.0,47.7,30.15,West,281,0.0,1.0,76,0.00,,,0.00,meteohub,2013-03-17 07:57:00,
2013-03-17 01:02:00,54.9,47.1,30.15,West,281,3.0,3.0,75,0.00,,,0.00,meteohub,2013-03-17 08:02:00,
2013-03-17 01:07:00,54.7,46.9,30.15,West,281,1.0,5.0,75,0.00,,,0.00,meteohub,2013-03-17 08:07:00,
2013-03-17 01:12:00,54.5,46.8,30.15,West,281,3.0,5.0,75,0.00,,,0.00,meteohub,2013-03-17 08:12:00,
2013-03-17 01:17:00,54.3,46.6,30.15,West,281,0.0,6.0,75,0.00,,,0.00,meteohub,2013-03-17 08:17:00,
2013-03-17 01:27:00,54.7,46.9,30.15,West,280,0.0,6.0,75,0.00,,,0.00,meteohub,2013-03-17 08:27:00,
2013-03-17 01:32:00,54.5,46.8,30.15,West,280,0.0,3.0,75,0.00,,,0.00,meteohub,2013-03-17 08:32:00,
2013-03-17 01:42:00,54.3,46.9,30.15,West,281,0.0,2.0,76,0.00,,,0.00,meteohub,2013-03-17 08:42:00,
2013-03-17 01:47:00,54.7,46.9,30.16,West,280,2.0,2.0,75,0.00,,,0.00,meteohub,2013-03-17 08:47:00,
2013-03-17 01:57:00,54.7,46.6,30.16,West,281,0.0,4.0,74,0.00,,,0.00,meteohub,2013-03-17 08:57:00,
2013-03-17 02:07:00,54.1,46.4,30.16,West,280,0.0,3.0,75,0.00,,,0.00,meteohub,2013-03-17 09:07:00,
2013-03-17 02:17:00,54.1,46.8,30.16,West,281,0.0,2.0,76,0.00,,,0.00,meteohub,2013-03-17 09:17:00,
2013-03-17 02:22:00,54.1,46.8,30.16,West,280,1.0,2.0,76,0.00,,,0.00,meteohub,2013-03-17 09:22:00,
2013-03-17 02:27:00,54.3,46.6,30.16,West,280,0.0,2.0,75,0.00,,,0.00,meteohub,2013-03-17 09:27:00,
2013-03-17 02:32:00,54.3,46.6,30.16,West,280,0.0,3.0,75,0.00,,,0.00,meteohub,2013-03-17 09:32:00,
2013-03-17 02:37:00,54.1,46.4,30.16,West,281,0.0,3.0,75,0.00,,,0.00,meteohub,2013-03-17 09:37:00,
2013-03-17 02:47:00,54.0,46.2,30.16,West,281,0.0,3.0,75,0.00,,,0.00,meteohub,2013-03-17 09:47:00,
2013-03-17 02:52:00,53.8,46.4,30.16,West,280,0.0,1.0,76,0.00,,,0.00,meteohub,2013-03-17 09:52:00,
2013-03-17 02:57:00,53.6,46.6,30.16,West,280,1.0,1.0,77,0.00,,,0.00,meteohub,2013-03-17 09:57:00,
2013-03-17 03:02:00,53.8,46.8,30.16,West,281,2.0,2.0,77,0.00,,,0.00,meteohub,2013-03-17 10:02:00,
2013-03-17 03:07:00,53.6,46.2,30.16,West,280,0.0,3.0,76,0.00,,,0.00,meteohub,2013-03-17 10:07:00,
2013-03-17 03:12:00,53.4,46.4,30.16,West,280,1.0,4.0,77,0.00,,,0.00,meteohub,2013-03-17 10:12:00,
2013-03-17 03:17:00,53.4,46.4,30.16,West,280,0.0,4.0,77,0.00,,,0.00,meteohub,2013-03-17 10:17:00,
2013-03-17 03:22:00,53.2,46.2,30.16,West,281,1.0,4.0,77,0.00,,,0.00,meteohub,2013-03-17 10:22:00,
2013-03-17 03:27:00,53.1,46.4,30.16,West,280,1.0,2.0,78,0.00,,,0.00,meteohub,2013-03-17 10:27:00,
2013-03-17 03:32:00,52.9,46.6,30.16,West,280,0.0,3.0,79,0.00,,,0.00,meteohub,2013-03-17 10:32:00,
2013-03-17 03:42:00,52.7,46.4,30.16,West,280,2.0,3.0,79,0.00,,,0.00,meteohub,2013-03-17 10:42:00,
2013-03-17 03:47:00,52.5,46.2,30.16,West,280,0.0,4.0,79,0.00,,,0.00,meteohub,2013-03-17 10:47:00,
2013-03-17 03:52:00,52.5,46.2,30.16,West,280,0.0,4.0,79,0.00,,,0.00,meteohub,2013-03-17 10:52:00,
2013-03-17 03:57:00,52.3,46.0,30.16,West,280,0.0,4.0,79,0.00,,,0.00,meteohub,2013-03-17 10:57:00,
2013-03-17 04:07:00,52.7,46.4,30.15,West,280,0.0,2.0,79,0.00,,,0.00,meteohub,2013-03-17 11:07:00,
2013-03-17 04:12:00,52.9,46.2,30.15,West,280,0.0,1.0,78,0.00,,,0.00,meteohub,2013-03-17 11:12:00,
2013-03-17 04:17:00,52.9,46.2,30.15,West,280,0.0,2.0,78,0.00,,,0.00,meteohub,2013-03-17 11:17:00,
2013-03-17 04:27:00,52.5,45.9,30.14,West,280,0.0,3.0,78,0.00,,,0.00,meteohub,2013-03-17 11:27:00,
2013-03-17 04:32:00,52.7,46.4,30.15,West,280,0.0,3.0,79,0.00,,,0.00,meteohub,2013-03-17 11:32:00,
2013-03-17 04:37:00,53.1,46.4,30.14,West,280,0.0,1.0,78,0.00,,,0.00,meteohub,2013-03-17 11:37:00,
2013-03-17 04:47:00,52.9,46.2,30.14,West,280,0.0,2.0,78,0.00,,,0.00,meteohub,2013-03-17 11:47:00,
2013-03-17 04:52:00,52.7,46.0,30.14,West,280,0.0,1.0,78,0.00,,,0.00,meteohub,2013-03-17 11:52:00,
2013-03-17 04:57:00,52.5,45.9,30.14,West,281,0.0,1.0,78,0.00,,,0.00,meteohub,2013-03-17 11:57:00,
2013-03-17 05:02:00,52.3,45.7,30.14,West,280,1.0,1.0,78,0.00,,,0.00,meteohub,2013-03-17 12:02:00,
2013-03-17 05:12:00,52.3,45.3,30.15,West,281,0.0,3.0,77,0.00,,,0.00,meteohub,2013-03-17 12:12:00,
2013-03-17 05:22:00,51.6,45.0,30.15,West,281,0.0,1.0,78,0.00,,,0.00,meteohub,2013-03-17 12:22:00,
2013-03-17 05:27:00,51.6,44.6,30.15,West,277,2.0,0.0,77,0.00,,,0.00,meteohub,2013-03-17 12:27:00,
2013-03-17 05:32:00,51.6,44.6,30.14,WNW,292,1.0,2.0,77,0.00,,,0.00,meteohub,2013-03-17 12:32:00,
2013-03-17 05:37:00,51.4,44.4,30.14,West,273,1.0,2.0,77,0.00,,,0.00,meteohub,2013-03-17 12:37:00,
2013-03-17 05:42:00,51.4,44.4,30.14,WNW,291,2.0,3.0,77,0.00,,,0.00,meteohub,2013-03-17 12:42:00,
2013-03-17 05:47:00,51.4,44.4,30.15,NW,309,2.0,4.0,77,0.00,,,0.00,meteohub,2013-03-17 12:47:00,
2013-03-17 05:52:00,51.3,44.2,30.15,WNW,302,1.0,5.0,77,0.00,,,0.00,meteohub,2013-03-17 12:52:00,
2013-03-17 05:57:00,51.3,44.2,30.14,NW,311,2.0,5.0,77,0.00,,,0.00,meteohub,2013-03-17 12:57:00,
2013-03-17 06:07:00,51.3,44.2,30.14,WNW,283,2.0,4.0,77,0.00,,,0.00,meteohub,2013-03-17 13:07:00,
2013-03-17 06:17:00,50.7,44.1,30.15,SSW,210,1.0,2.0,78,0.00,,,0.00,meteohub,2013-03-17 13:17:00,
2013-03-17 06:22:00,50.5,43.9,30.16,SSW,198,0.0,2.0,78,0.00,,,0.00,meteohub,2013-03-17 13:22:00,
2013-03-17 06:27:00,50.4,44.1,30.16,SW,223,0.0,1.0,79,0.00,,,0.00,meteohub,2013-03-17 13:27:00,
2013-03-17 06:32:00,50.0,43.7,30.16,SW,223,0.0,1.0,79,0.00,,,0.00,meteohub,2013-03-17 13:32:00,
2013-03-17 06:37:00,49.8,43.5,30.16,SSW,196,1.0,1.0,79,0.00,,,0.00,meteohub,2013-03-17 13:37:00,
2013-03-17 06:42:00,49.6,43.7,30.17,South,170,0.0,2.0,80,0.00,,,0.00,meteohub,2013-03-17 13:42:00,
2013-03-17 06:52:00,49.1,43.5,30.17,South,170,0.0,2.0,81,0.00,,,0.00,meteohub,2013-03-17 13:52:00,
2013-03-17 06:57:00,49.1,43.5,30.17,South,169,0.0,1.0,81,0.00,,,0.00,meteohub,2013-03-17 13:57:00,
2013-03-17 07:02:00,49.3,43.7,30.17,WSW,243,0.0,1.0,81,0.00,,,0.00,meteohub,2013-03-17 14:02:00,
2013-03-17 07:07:00,49.3,43.7,30.17,WSW,244,0.0,1.0,81,0.00,,,0.00,meteohub,2013-03-17 14:07:00,
2013-03-17 07:12:00,49.3,43.7,30.18,WSW,244,0.0,1.0,81,0.00,,,0.00,meteohub,2013-03-17 14:12:00,
2013-03-17 07:22:00,49.3,43.7,30.17,WSW,242,0.0,1.0,81,0.00,,,0.00,meteohub,2013-03-17 14:22:00,
2013-03-17 07:27:00,49.5,43.9,30.17,SW,227,0.0,3.0,81,0.00,,,0.00,meteohub,2013-03-17 14:27:00,
2013-03-17 07:32:00,49.5,43.5,30.17,SW,226,2.0,3.0,80,0.00,,,0.00,meteohub,2013-03-17 14:32:00,
2013-03-17 07:37:00,49.5,43.5,30.18,SW,227,0.0,3.0,80,0.00,,,0.00,meteohub,2013-03-17 14:37:00,
2013-03-17 07:47:00,49.5,43.9,30.17,SSW,199,0.0,2.0,81,0.00,,,0.00,meteohub,2013-03-17 14:47:00,
2013-03-17 07:52:00,49.3,43.7,30.18,SSE,161,0.0,2.0,81,0.00,,,0.00,meteohub,2013-03-17 14:52:00,
2013-03-17 08:02:00,49.6,44.1,30.18,West,266,0.0,1.0,81,0.00,,,0.00,meteohub,2013-03-17 15:02:00,
2013-03-17 08:07:00,49.8,43.9,30.18,SSW,199,0.0,2.0,80,0.00,,,0.00,meteohub,2013-03-17 15:07:00,
2013-03-17 08:12:00,50.4,44.4,30.18,WSW,238,0.0,2.0,80,0.00,,,0.00,meteohub,2013-03-17 15:12:00,
2013-03-17 08:22:00,51.4,44.4,30.18,East,80,0.0,2.0,77,0.00,,,0.00,meteohub,2013-03-17 15:22:00,
2013-03-17 08:27:00,51.8,44.4,30.18,ENE,58,0.0,2.0,76,0.00,,,0.00,meteohub,2013-03-17 15:27:00,
2013-03-17 08:32:00,52.2,44.4,30.18,ENE,58,2.0,2.0,75,0.00,,,0.00,meteohub,2013-03-17 15:32:00,
2013-03-17 08:37:00,52.5,44.4,30.18,NE,50,1.0,3.0,74,0.00,,,0.00,meteohub,2013-03-17 15:37:00,
2013-03-17 08:47:00,52.9,44.4,30.17,ENE,76,4.0,7.0,73,0.00,,,0.00,meteohub,2013-03-17 15:47:00,
2013-03-17 08:52:00,52.9,44.4,30.18,SSW,208,0.0,7.0,73,0.00,,,0.00,meteohub,2013-03-17 15:52:00,
2013-03-17 09:02:00,53.2,44.4,30.18,ENE,59,0.0,7.0,72,0.00,,,0.00,meteohub,2013-03-17 16:02:00,
2013-03-17 09:07:00,53.8,45.0,30.18,SE,133,1.0,4.0,72,0.00,,,0.00,meteohub,2013-03-17 16:07:00,
2013-03-17 09:12:00,54.0,44.8,30.18,ESE,119,0.0,4.0,71,0.00,,,0.00,meteohub,2013-03-17 16:12:00,
2013-03-17 09:22:00,54.1,44.2,30.19,East,90,2.0,4.0,69,0.00,,,0.00,meteohub,2013-03-17 16:22:00,
2013-03-17 09:27:00,54.3,44.8,30.19,East,82,2.0,5.0,70,0.00,,,0.00,meteohub,2013-03-17 16:27:00,
2013-03-17 09:32:00,54.5,44.6,30.19,NE,50,1.0,5.0,69,0.00,,,0.00,meteohub,2013-03-17 16:32:00,
2013-03-17 09:37:00,54.7,44.2,30.19,SSW,192,1.0,5.0,68,0.00,,,0.00,meteohub,2013-03-17 16:37:00,
2013-03-17 09:42:00,54.7,44.2,30.18,NE,53,2.0,3.0,68,0.00,,,0.00,meteohub,2013-03-17 16:42:00,
2013-03-17 09:47:00,54.7,44.2,30.18,ESE,109,3.0,5.0,68,0.00,,,0.00,meteohub,2013-03-17 16:47:00,
2013-03-17 09:52:00,54.7,44.2,30.18,ENE,71,1.0,7.0,68,0.00,,,0.00,meteohub,2013-03-17 16:52:00,
2013-03-17 09:57:00,55.0,44.6,30.19,NNW,333,3.0,7.0,68,0.00,,,0.00,meteohub,2013-03-17 16:57:00,
2013-03-17 10:07:00,55.4,44.2,30.18,East,86,0.0,6.0,66,0.00,,,0.00,meteohub,2013-03-17 17:07:00,
2013-03-17 10:12:00,55.6,44.4,30.19,ENE,69,5.0,5.0,66,0.00,,,0.00,meteohub,2013-03-17 17:12:00,
2013-03-17 10:17:00,55.2,43.7,30.19,North,10,1.0,5.0,65,0.00,,,0.00,meteohub,2013-03-17 17:17:00,
2013-03-17 10:27:00,55.6,44.1,30.19,ENE,71,1.0,5.0,65,0.00,,,0.00,meteohub,2013-03-17 17:27:00,
2013-03-17 10:32:00,55.8,44.6,30.20,ENE,61,1.0,5.0,66,0.00,,,0.00,meteohub,2013-03-17 17:32:00,
2013-03-17 10:37:00,56.1,44.6,30.19,NNE,29,0.0,5.0,65,0.00,,,0.00,meteohub,2013-03-17 17:37:00,
2013-03-17 10:42:00,56.7,45.0,30.19,ESE,121,1.0,5.0,65,0.00,,,0.00,meteohub,2013-03-17 17:42:00,
2013-03-17 10:47:00,57.0,45.0,30.19,SE,135,3.0,5.0,64,0.00,,,0.00,meteohub,2013-03-17 17:47:00,
2013-03-17 10:52:00,57.0,44.6,30.19,ENE,63,3.0,5.0,63,0.00,,,0.00,meteohub,2013-03-17 17:52:00,
2013-03-17 11:02:00,56.1,44.1,30.19,ENE,76,4.0,7.0,64,0.00,,,0.00,meteohub,2013-03-17 18:02:00,
2013-03-17 11:07:00,55.9,43.9,30.19,East,84,1.0,7.0,64,0.00,,,0.00,meteohub,2013-03-17 18:07:00,
2013-03-17 11:12:00,56.1,44.6,30.19,ESE,113,3.0,7.0,65,0.00,,,0.00,meteohub,2013-03-17 18:12:00,
2013-03-17 11:17:00,57.0,44.1,30.19,ENE,62,2.0,7.0,62,0.00,,,0.00,meteohub,2013-03-17 18:17:00,
2013-03-17 11:27:00,57.6,43.3,30.18,SE,126,2.0,6.0,59,0.00,,,0.00,meteohub,2013-03-17 18:27:00,
2013-03-17 11:32:00,57.6,43.7,30.18,SE,133,1.0,8.0,60,0.00,,,0.00,meteohub,2013-03-17 18:32:00,
2013-03-17 11:37:00,57.6,43.3,30.18,East,91,5.0,8.0,59,0.00,,,0.00,meteohub,2013-03-17 18:37:00,
2013-03-17 11:42:00,57.7,43.9,30.18,SE,137,3.0,8.0,60,0.00,,,0.00,meteohub,2013-03-17 18:42:00,
2013-03-17 11:47:00,58.3,44.1,30.18,SE,130,2.0,7.0,59,0.00,,,0.00,meteohub,2013-03-17 18:47:00,
2013-03-17 11:52:00,59.2,43.9,30.18,WSW,250,2.0,7.0,57,0.00,,,0.00,meteohub,2013-03-17 18:52:00,
2013-03-17 11:57:00,59.4,42.8,30.18,SW,232,2.0,7.0,54,0.00,,,0.00,meteohub,2013-03-17 18:57:00,
2013-03-17 12:02:00,58.8,42.6,30.18,NE,51,2.0,8.0,55,0.00,,,0.00,meteohub,2013-03-17 19:02:00,
2013-03-17 12:07:00,59.5,44.8,30.17,South,183,5.0,8.0,58,0.00,,,0.00,meteohub,2013-03-17 19:07:00,
2013-03-17 12:17:00,59.2,43.5,30.17,NE,53,2.0,7.0,56,0.00,,,0.00,meteohub,2013-03-17 19:17:00,
2013-03-17 12:22:00,59.7,44.1,30.17,WNW,286,0.0,8.0,56,0.00,,,0.00,meteohub,2013-03-17 19:22:00,
2013-03-17 12:27:00,60.1,41.4,30.17,North,350,2.0,8.0,50,0.00,,,0.00,meteohub,2013-03-17 19:27:00,
2013-03-17 12:32:00,60.6,41.9,30.17,WSW,254,2.0,8.0,50,0.00,,,0.00,meteohub,2013-03-17 19:32:00,
2013-03-17 12:37:00,61.9,42.4,30.17,SSE,159,3.0,8.0,49,0.00,,,0.00,meteohub,2013-03-17 19:37:00,
2013-03-17 12:42:00,62.8,42.3,30.16,ENE,57,3.0,6.0,47,0.00,,,0.00,meteohub,2013-03-17 19:42:00,
2013-03-17 12:52:00,63.7,42.4,30.16,NW,321,0.0,5.0,46,0.00,,,0.00,meteohub,2013-03-17 19:52:00,
2013-03-17 12:57:00,63.7,41.4,30.16,NW,315,1.0,5.0,44,0.00,,,0.00,meteohub,2013-03-17 19:57:00,
2013-03-17 13:02:00,63.9,42.1,30.16,NW,315,1.0,5.0,45,0.00,,,0.00,meteohub,2013-03-17 20:02:00,
2013-03-17 13:12:00,63.5,40.6,30.16,NE,51,3.0,5.0,43,0.00,,,0.00,meteohub,2013-03-17 20:12:00,
2013-03-17 13:17:00,63.9,41.0,30.16,NE,44,3.0,5.0,43,0.00,,,0.00,meteohub,2013-03-17 20:17:00,
2013-03-17 13:22:00,64.0,40.5,30.16,ENE,73,7.0,7.0,42,0.00,,,0.00,meteohub,2013-03-17 20:22:00,
2013-03-17 13:27:00,64.0,41.7,30.15,NNE,16,2.0,8.0,44,0.00,,,0.00,meteohub,2013-03-17 20:27:00,
2013-03-17 13:32:00,64.4,44.2,30.15,NNW,340,6.0,8.0,48,0.00,,,0.00,meteohub,2013-03-17 20:32:00,
2013-03-17 13:37:00,64.0,46.0,30.15,NW,315,7.0,8.0,52,0.00,,,0.00,meteohub,2013-03-17 20:37:00,
2013-03-17 13:42:00,64.0,46.0,30.15,NW,310,3.0,9.0,52,0.00,,,0.00,meteohub,2013-03-17 20:42:00,
2013-03-17 13:47:00,63.3,45.3,30.15,NW,306,5.0,9.0,52,0.00,,,0.00,meteohub,2013-03-17 20:47:00,
2013-03-17 13:52:00,63.0,45.1,30.15,West,267,5.0,9.0,52,0.00,,,0.00,meteohub,2013-03-17 20:52:00,
2013-03-17 13:57:00,63.0,45.5,30.15,WSW,250,6.0,9.0,53,0.00,,,0.00,meteohub,2013-03-17 20:57:00,
2013-03-17 14:07:00,61.7,46.4,30.14,NW,306,4.0,12.0,57,0.00,,,0.00,meteohub,2013-03-17 21:07:00,
2013-03-17 14:12:00,61.0,46.0,30.14,NW,313,7.0,12.0,58,0.00,,,0.00,meteohub,2013-03-17 21:12:00,
2013-03-17 14:22:00,61.7,45.9,30.14,NW,304,5.0,11.0,56,0.00,,,0.00,meteohub,2013-03-17 21:22:00,
2013-03-17 14:27:00,61.9,46.0,30.14,WNW,291,5.0,8.0,56,0.00,,,0.00,meteohub,2013-03-17 21:27:00,
2013-03-17 14:32:00,61.9,46.0,30.14,NNE,28,4.0,9.0,56,0.00,,,0.00,meteohub,2013-03-17 21:32:00,
2013-03-17 14:42:00,62.1,46.2,30.13,WNW,292,5.0,9.0,56,0.00,,,0.00,meteohub,2013-03-17 21:42:00,
2013-03-17 14:52:00,62.1,45.1,30.12,WNW,288,3.0,10.0,54,0.00,,,0.00,meteohub,2013-03-17 21:52:00,
2013-03-17 14:57:00,63.1,46.2,30.12,NNW,327,4.0,10.0,54,0.00,,,0.00,meteohub,2013-03-17 21:57:00,
2013-03-17 15:02:00,63.1,45.7,30.11,NW,304,4.0,9.0,53,0.00,,,0.00,meteohub,2013-03-17 22:02:00,
2013-03-17 15:07:00,62.8,45.9,30.11,NW,306,4.0,9.0,54,0.00,,,0.00,meteohub,2013-03-17 22:07:00,
2013-03-17 15:12:00,63.1,46.2,30.12,NNW,346,7.0,9.0,54,0.00,,,0.00,meteohub,2013-03-17 22:12:00,
2013-03-17 15:22:00,62.6,45.7,30.11,NW,305,7.0,10.0,54,0.00,,,0.00,meteohub,2013-03-17 22:22:00,
2013-03-17 15:27:00,62.2,45.3,30.11,NW,309,9.0,10.0,54,0.00,,,0.00,meteohub,2013-03-17 22:27:00,
2013-03-17 15:37:00,62.1,44.8,30.11,WNW,284,4.0,10.0,53,0.00,,,0.00,meteohub,2013-03-17 22:37:00,
2013-03-17 15:42:00,61.9,45.1,30.12,NE,51,6.0,11.0,54,0.00,,,0.00,meteohub,2013-03-17 22:42:00,
2013-03-17 15:47:00,61.5,45.1,30.12,NW,322,7.0,11.0,55,0.00,,,0.00,meteohub,2013-03-17 22:47:00,
2013-03-17 15:52:00,61.3,45.0,30.11,WNW,293,8.0,13.0,55,0.00,,,0.00,meteohub,2013-03-17 22:52:00,
2013-03-17 15:57:00,61.7,45.9,30.11,WNW,286,6.0,13.0,56,0.00,,,0.00,meteohub,2013-03-17 22:57:00,
2013-03-17 16:02:00,61.3,44.6,30.11,West,271,9.0,13.0,54,0.00,,,0.00,meteohub,2013-03-17 23:02:00,
2013-03-17 16:12:00,61.2,45.9,30.12,West,281,9.0,13.0,57,0.00,,,0.00,meteohub,2013-03-17 23:12:00,
2013-03-17 16:17:00,60.1,45.7,30.12,WSW,256,3.0,12.0,59,0.00,,,0.00,meteohub,2013-03-17 23:17:00,
2013-03-17 16:22:00,59.2,45.7,30.12,WNW,302,9.0,16.0,61,0.00,,,0.00,meteohub,2013-03-17 23:22:00,
2013-03-17 16:27:00,59.2,45.7,30.12,WNW,289,10.0,16.0,61,0.00,,,0.00,meteohub,2013-03-17 23:27:00,
2013-03-17 16:37:00,58.6,46.6,30.11,North,10,8.0,14.0,64,0.00,,,0.00,meteohub,2013-03-17 23:37:00,
2013-03-17 16:47:00,58.1,45.5,30.11,North,11,11.0,16.0,63,0.00,,,0.00,meteohub,2013-03-17 23:47:00,
2013-03-17 16:52:00,57.9,45.9,30.11,WSW,250,7.0,16.0,64,0.00,,,0.00,meteohub,2013-03-17 23:52:00,
2013-03-17 16:57:00,57.4,45.7,30.11,NW,321,13.0,16.0,65,0.00,,,0.00,meteohub,2013-03-17 23:57:00,
2013-03-17 17:07:00,57.0,45.3,30.12,NNE,28,6.0,16.0,65,0.00,,,0.00,meteohub,2013-03-18 00:07:00,
2013-03-17 17:12:00,56.7,45.9,30.11,WNW,296,8.0,14.0,67,0.00,,,0.00,meteohub,2013-03-18 00:12:00,
2013-03-17 17:17:00,56.7,45.9,30.11,WNW,285,4.0,14.0,67,0.00,,,0.00,meteohub,2013-03-18 00:17:00,
2013-03-17 17:22:00,56.8,46.0,30.11,West,263,6.0,14.0,67,0.00,,,0.00,meteohub,2013-03-18 00:22:00,
2013-03-17 17:27:00,56.7,45.5,30.10,NW,310,5.0,13.0,66,0.00,,,0.00,meteohub,2013-03-18 00:27:00,
2013-03-17 17:37:00,56.5,45.7,30.11,NW,314,9.0,13.0,67,0.00,,,0.00,meteohub,2013-03-18 00:37:00,
2013-03-17 17:42:00,56.3,45.5,30.10,West,276,8.0,13.0,67,0.00,,,0.00,meteohub,2013-03-18 00:42:00,
2013-03-17 17:52:00,55.8,45.0,30.11,NW,313,6.0,14.0,67,0.00,,,0.00,meteohub,2013-03-18 00:52:00,
2013-03-17 18:02:00,55.2,45.1,30.10,West,271,8.0,14.0,69,0.00,,,0.00,meteohub,2013-03-18 01:02:00,
2013-03-17 18:07:00,54.9,45.0,30.10,WNW,282,10.0,14.0,69,0.00,,,0.00,meteohub,2013-03-18 01:07:00,
2013-03-17 18:12:00,54.5,44.6,30.10,South,191,4.0,14.0,69,0.00,,,0.00,meteohub,2013-03-18 01:12:00,
2013-03-17 18:17:00,54.1,44.2,30.10,West,275,10.0,16.0,69,0.00,,,0.00,meteohub,2013-03-18 01:17:00,
2013-03-17 18:22:00,54.0,44.4,30.10,WNW,301,14.0,16.0,70,0.00,,,0.00,meteohub,2013-03-18 01:22:00,
2013-03-17 18:27:00,53.8,44.6,30.10,West,271,5.0,16.0,71,0.00,,,0.00,meteohub,2013-03-18 01:27:00,
2013-03-17 18:32:00,53.6,44.4,30.10,NW,313,5.0,16.0,71,0.00,,,0.00,meteohub,2013-03-18 01:32:00,
2013-03-17 18:37:00,53.2,44.1,30.10,NNE,32,6.0,16.0,71,0.00,,,0.00,meteohub,2013-03-18 01:37:00,
2013-03-17 18:42:00,53.2,44.1,30.10,NNE,28,10.0,15.0,71,0.00,,,0.00,meteohub,2013-03-18 01:42:00,
2013-03-17 18:47:00,53.1,44.2,30.10,NW,311,7.0,15.0,72,0.00,,,0.00,meteohub,2013-03-18 01:47:00,
2013-03-17 18:57:00,52.9,44.1,30.10,WNW,290,9.0,15.0,72,0.00,,,0.00,meteohub,2013-03-18 01:57:00,
2013-03-17 19:02:00,52.9,44.1,30.10,WNW,283,5.0,15.0,72,0.00,,,0.00,meteohub,2013-03-18 02:02:00,
2013-03-17 19:07:00,52.5,43.7,30.10,NNW,347,12.0,14.0,72,0.00,,,0.00,meteohub,2013-03-18 02:07:00,
2013-03-17 19:17:00,52.3,43.9,30.10,West,274,6.0,14.0,73,0.00,,,0.00,meteohub,2013-03-18 02:17:00,
2013-03-17 19:27:00,52.3,43.5,30.10,WNW,292,2.0,10.0,72,0.00,,,0.00,meteohub,2013-03-18 02:27:00,
2013-03-17 19:32:00,52.3,43.5,30.10,NW,326,3.0,9.0,72,0.00,,,0.00,meteohub,2013-03-18 02:32:00,
2013-03-17 19:37:00,52.3,43.5,30.10,NW,306,7.0,9.0,72,0.00,,,0.00,meteohub,2013-03-18 02:37:00,
2013-03-17 19:42:00,52.2,43.3,30.10,NW,311,7.0,10.0,72,0.00,,,0.00,meteohub,2013-03-18 02:42:00,
2013-03-17 19:52:00,51.4,43.7,30.11,West,276,6.0,13.0,75,0.00,,,0.00,meteohub,2013-03-18 02:52:00,
2013-03-17 19:57:00,51.3,43.5,30.11,WNW,294,8.0,13.0,75,0.00,,,0.00,meteohub,2013-03-18 02:57:00,
2013-03-17 20:02:00,51.3,43.5,30.11,NNW,327,9.0,13.0,75,0.00,,,0.00,meteohub,2013-03-18 03:02:00,
2013-03-17 20:07:00,51.1,43.7,30.11,NNW,333,7.0,13.0,76,0.00,,,0.00,meteohub,2013-03-18 03:07:00,
2013-03-17 20:12:00,51.3,43.9,30.11,WNW,302,3.0,13.0,76,0.00,,,0.00,meteohub,2013-03-18 03:12:00,
2013-03-17 20:17:00,51.3,43.9,30.11,SW,219,4.0,10.0,76,0.00,,,0.00,meteohub,2013-03-18 03:17:00,
2013-03-17 20:22:00,51.3,43.9,30.10,SW,229,1.0,10.0,76,0.00,,,0.00,meteohub,2013-03-18 03:22:00,
2013-03-17 20:27:00,51.3,43.9,30.11,NW,304,4.0,9.0,76,0.00,,,0.00,meteohub,2013-03-18 03:27:00,
2013-03-17 20:32:00,51.3,43.9,30.11,WNW,302,5.0,8.0,76,0.00,,,0.00,meteohub,2013-03-18 03:32:00,
2013-03-17 20:37:00,51.1,43.7,30.11,West,280,8.0,8.0,76,0.00,,,0.00,meteohub,2013-03-18 03:37:00,
2013-03-17 20:42:00,50.9,43.9,30.11,NW,310,6.0,12.0,77,0.00,,,0.00,meteohub,2013-03-18 03:42:00,
2013-03-17 20:47:00,50.7,44.1,30.11,NW,313,6.0,12.0,78,0.00,,,0.00,meteohub,2013-03-18 03:47:00,
2013-03-17 20:52:00,50.7,44.1,30.11,NW,305,6.0,12.0,78,0.00,,,0.00,meteohub,2013-03-18 03:52:00,
2013-03-17 21:02:00,50.7,44.1,30.11,NW,313,3.0,12.0,78,0.00,,,0.00,meteohub,2013-03-18 04:02:00,
2013-03-17 21:07:00,50.9,44.2,30.11,WNW,291,1.0,11.0,78,0.00,,,0.00,meteohub,2013-03-18 04:07:00,
2013-03-17 21:12:00,51.1,44.8,30.11,NW,307,1.0,9.0,79,0.00,,,0.00,meteohub,2013-03-18 04:12:00,
2013-03-17 21:17:00,51.3,44.6,30.12,NW,319,5.0,7.0,78,0.00,,,0.00,meteohub,2013-03-18 04:17:00,
2013-03-17 21:22:00,51.3,44.6,30.12,NNW,327,5.0,7.0,78,0.00,,,0.00,meteohub,2013-03-18 04:22:00,
2013-03-17 21:27:00,51.3,44.6,30.12,SW,236,1.0,9.0,78,0.00,,,0.00,meteohub,2013-03-18 04:27:00,
2013-03-17 21:32:00,51.3,44.6,30.12,WNW,284,3.0,9.0,78,0.00,,,0.00,meteohub,2013-03-18 04:32:00,
2013-03-17 21:37:00,51.3,44.6,30.12,NNW,333,1.0,9.0,78,0.00,,,0.00,meteohub,2013-03-18 04:37:00,
2013-03-17 21:42:00,51.1,44.4,30.12,West,266,2.0,6.0,78,0.00,,,0.00,meteohub,2013-03-18 04:42:00,
2013-03-17 21:47:00,51.1,44.4,30.12,West,271,6.0,6.0,78,0.00,,,0.00,meteohub,2013-03-18 04:47:00,
2013-03-17 21:57:00,51.3,44.6,30.12,WSW,249,2.0,6.0,78,0.00,,,0.00,meteohub,2013-03-18 04:57:00,
2013-03-17 22:02:00,51.3,44.6,30.12,East,80,2.0,6.0,78,0.00,,,0.00,meteohub,2013-03-18 05:02:00,
2013-03-17 22:07:00,51.3,44.6,30.12,NW,309,2.0,5.0,78,0.00,,,0.00,meteohub,2013-03-18 05:07:00,
2013-03-17 22:12:00,51.4,44.8,30.12,SW,235,1.0,5.0,78,0.00,,,0.00,meteohub,2013-03-18 05:12:00,
2013-03-17 22:17:00,51.4,44.8,30.12,WNW,292,0.0,5.0,78,0.00,,,0.00,meteohub,2013-03-18 05:17:00,
2013-03-17 22:22:00,51.4,44.4,30.12,WNW,290,0.0,3.0,77,0.00,,,0.00,meteohub,2013-03-18 05:22:00,
2013-03-17 22:27:00,51.3,44.2,30.12,WSW,250,4.0,4.0,77,0.00,,,0.00,meteohub,2013-03-18 05:27:00,
2013-03-17 22:32:00,51.3,44.6,30.12,SSW,199,1.0,5.0,78,0.00,,,0.00,meteohub,2013-03-18 05:32:00,
2013-03-17 22:37:00,51.1,44.4,30.12,SW,225,1.0,5.0,78,0.00,,,0.00,meteohub,2013-03-18 05:37:00,
2013-03-17 22:42:00,51.1,44.4,30.13,SW,236,2.0,5.0,78,0.00,,,0.00,meteohub,2013-03-18 05:42:00,
2013-03-17 22:47:00,51.1,44.8,30.13,West,264,2.0,4.0,79,0.00,,,0.00,meteohub,2013-03-18 05:47:00,
2013-03-17 22:52:00,50.9,44.2,30.13,SSW,209,1.0,3.0,78,0.00,,,0.00,meteohub,2013-03-18 05:52:00,
2013-03-17 22:57:00,50.7,44.4,30.13,SW,225,0.0,3.0,79,0.00,,,0.00,meteohub,2013-03-18 05:57:00,
2013-03-17 23:02:00,50.7,44.4,30.13,WSW,253,3.0,3.0,79,0.00,,,0.00,meteohub,2013-03-18 06:02:00,
2013-03-17 23:12:00,50.5,44.6,30.13,SSW,211,2.0,4.0,80,0.00,,,0.00,meteohub,2013-03-18 06:12:00,
2013-03-17 23:22:00,50.4,44.4,30.13,SSW,211,2.0,7.0,80,0.00,,,0.00,meteohub,2013-03-18 06:22:00,
2013-03-17 23:27:00,50.2,44.6,30.13,WNW,286,2.0,7.0,81,0.00,,,0.00,meteohub,2013-03-18 06:27:00,
2013-03-17 23:32:00,50.0,44.4,30.13,SW,227,7.0,7.0,81,0.00,,,0.00,meteohub,2013-03-18 06:32:00,
2013-03-17 23:42:00,49.8,44.6,30.13,SW,215,2.0,8.0,82,0.00,,,0.00,meteohub,2013-03-18 06:42:00,
2013-03-17 23:47:00,49.8,44.6,30.13,WSW,246,3.0,8.0,82,0.00,,,0.00,meteohub,2013-03-18 06:47:00,
2013-03-17 23:52:00,49.8,44.6,30.13,SW,225,3.0,7.0,82,0.00,,,0.00,meteohub,2013-03-18 06:52:00,